[[{"header":{"parameterUnit":"m.s-1","parameterCategory":1,"la1":30.2991,"la2":30.254,"lo1":-89.0895,"lo2":-89.0444,"dy":0.0017,"dx":0.0017,"nx":28,"ny":28,"refTime":"2024-07-28T09:00:00:Z","depth":0,"parameterNumber":2,"parameterNumberName":"U-component_of_WINDS"},"data":[0,0,0,0,0,0,0,0,0,0,0,0,0,0,0,0,0,0,0,0,0,0,0,0,0,0,0,0,0,0,0,0,0,0,0,0,0,0,0,0,0,0,0,0,0,0,0,0,0,0,0,0,0,0,0,0,0,0,1.4768,1.4768,0,1.4773,1.4773,1.4773,1.4736,1.4735,1.4734,1.4733,1.4735,1.4736,1.4737,0,0,0,0,0,0,0,0,0,0,0,0,0,1.4724,1.4725,1.4768,1.4768,1.4768,1.4773,1.4773,1.4773,1.4736,1.4735,1.4733,1.4732,1.4735,1.4736,1.4737,0,0,0,0,0,0,0,0,0,0,0,0,0,1.4737,1.4725,1.4768,1.475,1.4749,1.4773,1.4773,1.4773,1.4736,1.4735,1.4733,1.4732,1.4735,1.4736,1.4738,1.4778,0,0,1.4742,1.4743,0,0,0,0,0,0,0,0,1.4736,1.4739,1.4753,1.4752,1.475,1.4752,1.4758,1.4774,1.4736,1.4741,1.4733,1.4731,1.4742,1.4743,1.4747,1.4778,1.4778,1.4742,1.4743,1.4744,1.4744,0,0,0,0,0,0,0,1.4736,1.4738,1.477,1.4753,1.4751,1.4741,1.4741,1.4761,1.475,1.474,1.4738,1.4739,1.4741,1.4746,1.4747,1.4778,1.4742,1.4744,1.4745,1.4745,1.4839,1.484,0,0,0,0,0,0,1.4737,1.4738,1.477,1.477,1.4739,1.4743,1.4743,1.4753,1.475,1.4748,1.474,1.4737,1.4744,1.4745,1.4747,1.4791,1.4744,1.4745,1.4746,1.4837,1.4839,1.4841,0,0,0,0,0,0,1.4737,1.4741,1.477,1.4753,1.4756,1.4745,1.4757,1.4754,1.4758,1.475,1.4747,1.4747,1.4743,1.4745,1.477,1.479,1.4746,1.4748,1.4835,1.4838,1.484,1.4881,0,0,0,0,0,0,1.4735,1.4741,1.4757,1.4754,1.4757,1.4794,1.4758,1.4755,1.4761,1.4757,1.4755,1.4754,1.4741,1.4768,1.4771,1.4792,1.4749,1.4833,1.4836,1.4839,1.4878,1.4885,1.489,0,0,0,0,0,1.4734,1.4769,1.4758,1.4762,1.4777,1.4795,1.4797,1.4783,1.4763,1.4779,1.4772,1.4754,1.4788,1.4771,1.4774,1.4796,1.4832,1.4835,1.4839,1.4875,1.4883,1.489,0,0,0,0,0,0,1.4775,1.4768,1.4756,1.4791,1.4794,1.4789,1.4808,1.4792,1.48,1.4796,1.4778,1.4777,1.4805,1.4803,1.4784,1.4832,1.4806,1.4811,1.4832,1.484,1.4846,1.4845,1.475,0,0,0,0,0,1.4788,1.4804,1.4797,1.4828,1.483,1.4819,1.4826,1.4815,1.4817,1.4818,1.4813,1.4815,1.4826,1.4833,1.4843,1.4878,1.4875,1.4894,1.49,1.4906,1.4909,1.4924,1.4931,1.4852,1.4852,1.4852,0,0,1.4815,1.4813,1.4825,1.4836,1.4837,1.4852,1.482,1.4838,1.4848,1.482,1.4843,1.484,1.484,1.4869,1.4882,1.4869,1.493,1.491,1.4914,1.4915,1.4928,1.4935,1.4942,1.4854,1.4854,1.4854,0,0,1.4871,1.4873,1.4898,1.4899,1.49,1.4892,1.4898,1.4895,1.4891,1.4914,1.4892,1.4903,1.4924,1.4924,1.4926,1.498,1.4962,1.4984,1.5016,1.503,1.5037,1.5042,1.5058,1.5064,1.4988,1.4988,1.4988,0,1.4905,1.4927,1.4912,1.4931,1.4935,1.491,1.4933,1.4935,1.494,1.4943,1.4928,1.495,1.4949,1.4976,1.4989,1.4993,1.4997,1.4983,1.5037,1.5042,1.5047,1.5062,1.5069,1.499,1.499,1.499,1.499,0,1.4966,1.4982,1.5002,1.5006,1.5013,1.5034,1.502,1.5029,1.5017,1.5009,1.5031,1.5029,1.5036,1.5042,1.5031,1.5066,1.5058,1.5041,1.5013,1.5057,1.5071,1.5077,1.4994,1.4993,1.4992,1.4992,0,0,1.5049,1.5043,1.505,1.505,1.5048,1.506,1.5078,1.5085,1.5092,1.5095,1.5109,1.5125,1.5108,1.5111,1.5099,1.5113,1.5151,1.5093,1.5093,1.5101,1.5187,1.5198,1.5205,1.514,1.5141,1.5142,1.5186,0,1.5101,1.5133,1.5119,1.5151,1.5164,1.5139,1.5155,1.5155,1.5148,1.5157,1.515,1.516,1.5139,1.514,1.5152,1.5144,1.5168,1.5141,1.515,1.515,1.5148,1.5213,1.5225,1.5267,1.5191,1.5192,1.5193,0,1.5167,1.5171,1.5205,1.5199,1.5203,1.5218,1.5221,1.5231,1.5229,1.5223,1.5226,1.521,1.5226,1.52,1.522,1.5202,1.5205,1.5202,1.5203,1.5201,1.5173,1.521,1.528,1.5285,1.5202,1.5201,1.52,0,1.5219,1.5235,1.5256,1.5257,1.5251,1.5261,1.5259,1.5256,1.526,1.5263,1.5264,1.527,1.5272,1.5275,1.5261,1.5244,1.5281,1.5256,1.5275,1.5275,1.5282,1.5281,1.535,1.5288,1.5288,1.5288,1.5288,0,1.5277,1.5298,1.5279,1.5292,1.5313,1.5296,1.5318,1.5313,1.531,1.532,1.53,1.5309,1.529,1.5298,1.5286,1.5303,1.5305,1.5298,1.5295,1.5299,1.5299,1.5299,1.5294,1.529,1.5289,1.5289,1.5289,0,1.5339,1.5327,1.5348,1.534,1.5338,1.5354,1.5346,1.5357,1.5348,1.5361,1.5363,1.535,1.5357,1.5343,1.5349,1.5341,1.5363,1.5356,1.5363,1.536,1.5379,1.5376,1.5448,1.5455,1.5391,1.5392,1.5393,0,1.5376,1.5391,1.5384,1.5389,1.5388,1.5397,1.54,1.5384,1.5388,1.5386,1.5396,1.5401,1.5405,1.5417,1.5407,1.541,1.5401,1.5426,1.5402,1.5404,1.5398,1.5396,1.5396,1.5431,1.5431,1.5432,1.5433,0,1.5442,1.5434,1.544,1.5444,1.5448,1.545,1.5451,1.5456,1.5438,1.5444,1.545,1.5453,1.5458,1.5462,1.5463,1.5459,1.5442,1.5441,1.5445,1.5448,1.545,1.5446,1.5374,1.5439,1.5438,1.5438,1.5437,1.5437,1.549,1.5501,1.5496,1.5503,1.5501,1.5502,1.551,1.5502,1.5508,1.551,1.55,1.5508,1.5504,1.5503,1.55,1.5506,1.5494,1.5501,1.5502,1.5503,1.5505,1.5451,1.5506,1.5506,1.5506,1.5505,1.5505,0,1.5551,1.5547,1.5553,1.5554,1.5558,1.5543,1.5541,1.5546,1.5554,1.5551,1.5554,1.556,1.5564,1.5554,1.5556,1.5562,1.5554,1.5562,1.556,1.5559,1.5517,1.5511,1.5569,1.5569,1.5569,1.5569,1.5569,1.5569,1.5584,1.56,1.5592,1.5607,1.5602,1.561,1.561,1.561,1.5607,1.5615,1.5618,1.5611,1.5604,1.5605,1.5607,1.5604,1.5604,1.5615,1.5609,1.5569,1.5563,1.5557,1.5552,1.5616,1.5616,1.5651,1.5651,1.5651]},{"header":{"parameterUnit":"m.s-1","parameterCategory":1,"la1":30.2991,"la2":30.254,"lo1":-89.0895,"lo2":-89.0444,"dy":0.0017,"dx":0.0017,"nx":28,"ny":28,"refTime":"2024-07-28T09:00:00:Z","depth":0,"parameterNumber":3,"parameterNumberName":"V-component_of_WINDS"},"data":[0,0,0,0,0,0,0,0,0,0,0,0,0,0,0,0,0,0,0,0,0,0,0,0,0,0,0,0,0,0,0,0,0,0,0,0,0,0,0,0,0,0,0,0,0,0,0,0,0,0,0,0,0,0,0,0,0,0,1.9072,1.9074,0,1.9197,1.9198,1.92,1.9213,1.9212,1.921,1.9209,1.9334,1.9338,1.9342,0,0,0,0,0,0,0,0,0,0,0,0,0,1.8841,1.8845,1.9072,1.9074,1.9075,1.9197,1.9198,1.92,1.9213,1.9212,1.921,1.9209,1.9332,1.9337,1.9343,0,0,0,0,0,0,0,0,0,0,0,0,0,1.8951,1.8847,1.9072,1.9096,1.91,1.9196,1.9198,1.92,1.9213,1.9212,1.921,1.9208,1.933,1.9337,1.9343,1.9423,0,0,1.9364,1.9367,0,0,0,0,0,0,0,0,1.8945,1.8959,1.9091,1.9095,1.9099,1.9187,1.9162,1.9275,1.9214,1.917,1.9209,1.9207,1.9286,1.9296,1.9324,1.9429,1.9434,1.9365,1.9369,1.9372,1.9373,0,0,0,0,0,0,0,1.8937,1.8954,1.9121,1.9093,1.9098,1.91,1.9113,1.9184,1.9237,1.9174,1.9175,1.919,1.9288,1.9317,1.9327,1.9436,1.9364,1.937,1.9375,1.9377,1.9609,1.9611,0,0,0,0,0,0,1.8925,1.8948,1.9117,1.9125,1.9016,1.9106,1.9121,1.9161,1.9237,1.9246,1.9191,1.919,1.9307,1.9319,1.9331,1.9428,1.9372,1.9378,1.9382,1.9607,1.961,1.9612,0,0,0,0,0,0,1.892,1.894,1.9112,1.9037,1.9059,1.9112,1.9157,1.9164,1.9194,1.925,1.9259,1.9212,1.9306,1.9322,1.94,1.9432,1.9381,1.9387,1.9604,1.9608,1.9611,1.9621,0,0,0,0,0,0,1.8914,1.8939,1.897,1.9038,1.9063,1.918,1.9159,1.9168,1.9206,1.9205,1.9271,1.9281,1.9306,1.9389,1.9406,1.944,1.9392,1.9602,1.9606,1.961,1.9618,1.9625,1.963,0,0,0,0,0,1.8905,1.8968,1.8972,1.8992,1.9104,1.9182,1.9196,1.9225,1.9208,1.924,1.9275,1.9278,1.9426,1.9397,1.9416,1.9453,1.96,1.9605,1.9609,1.9616,1.9623,1.963,0,0,0,0,0,0,1.8903,1.8978,1.8983,1.9069,1.9119,1.9184,1.9225,1.9232,1.9287,1.9284,1.9316,1.9331,1.9407,1.9438,1.9405,1.9532,1.9511,1.952,1.9509,1.9517,1.9523,1.9513,1.9398,0,0,0,0,0,1.8913,1.8971,1.9033,1.9103,1.9128,1.9172,1.9207,1.9224,1.9277,1.9298,1.9339,1.9389,1.9446,1.9484,1.954,1.9623,1.9636,1.9657,1.9663,1.9668,1.9674,1.9719,1.9728,1.9628,1.9627,1.9627,0,0,1.8933,1.8981,1.9016,1.9104,1.9144,1.9202,1.919,1.9252,1.9295,1.9307,1.9383,1.9415,1.9472,1.9553,1.959,1.9581,1.9705,1.9674,1.9677,1.9681,1.9725,1.9734,1.9742,1.9631,1.963,1.963,0,0,1.9,1.9043,1.9105,1.9146,1.9208,1.9237,1.9251,1.9315,1.9337,1.9414,1.9424,1.9474,1.9573,1.9613,1.9646,1.9726,1.973,1.9743,1.9773,1.9816,1.9824,1.9831,1.9858,1.9867,1.975,1.975,1.975,0,1.9017,1.9106,1.9136,1.9198,1.9235,1.925,1.9312,1.935,1.9426,1.9451,1.944,1.9563,1.9603,1.9692,1.9711,1.9738,1.9755,1.9736,1.982,1.9828,1.9835,1.9861,1.9871,1.9751,1.9751,1.9751,1.9751,0,1.9123,1.9184,1.9227,1.9301,1.9343,1.9405,1.9443,1.9482,1.9495,1.9524,1.9601,1.9649,1.9714,1.9737,1.9751,1.9828,1.982,1.9814,1.9793,1.9845,1.987,1.988,1.9753,1.9752,1.9752,1.9752,0,0,1.9192,1.9281,1.9296,1.9329,1.9398,1.9445,1.9506,1.9571,1.9603,1.9655,1.9706,1.9788,1.9783,1.9821,1.9839,1.9877,1.9934,1.9866,1.9868,1.9876,2.002,2.0022,2.0034,1.9938,1.994,1.9941,2.0014,0,1.9265,1.9376,1.9404,1.9498,1.9554,1.9567,1.962,1.9667,1.9696,1.9746,1.9777,1.9835,1.9825,1.9847,1.9885,1.9919,1.9963,1.9914,1.9984,1.9986,1.9968,2.0047,2.0051,2.0117,2.0024,2.0026,2.0027,0,1.9365,1.942,1.9519,1.9579,1.9603,1.9651,1.9711,1.976,1.9812,1.983,1.9872,1.9886,1.9948,1.9925,2.001,1.9976,2.0006,2.0027,2.003,2.0037,2.0009,2.0054,2.0139,2.0149,2.0043,2.0042,2.0041,0,1.9403,1.9501,1.9573,1.9601,1.9673,1.9706,1.9737,1.9788,1.9824,1.9877,1.99,1.9959,1.9991,2.0035,2.0064,2.0044,2.0146,2.0125,2.0161,2.016,2.0181,2.0179,2.0271,2.0203,2.0202,2.0202,2.0202,0,1.9481,1.9541,1.9591,1.9635,1.9702,1.9733,1.9798,1.9829,1.9874,1.9923,1.9938,1.9984,2.002,2.0069,2.0092,2.0158,2.0173,2.0188,2.0193,2.0186,2.0184,2.0205,2.0201,2.0205,2.0204,2.0204,2.0203,0,1.9535,1.9571,1.965,1.9712,1.9728,1.9775,1.9826,1.9869,1.9897,1.9959,1.9975,2.002,2.0079,2.0113,2.0187,2.0202,2.0275,2.0279,2.0258,2.026,2.0293,2.0289,2.0401,2.0416,2.0339,2.0339,2.034,0,1.9582,1.9628,1.9695,1.9729,1.9761,1.9816,1.9853,1.9885,1.9922,1.9985,2.0019,2.008,2.013,2.0223,2.0261,2.0318,2.0322,2.0357,2.033,2.0321,2.0321,2.0317,2.0321,2.0361,2.0362,2.0363,2.0363,0,1.9661,1.9676,1.973,1.9789,1.9833,1.9881,1.9928,1.9955,1.9994,2.0035,2.0097,2.0135,2.0211,2.027,2.0329,2.036,2.0367,2.0371,2.0382,2.0375,2.036,2.0367,2.0269,2.0368,2.0368,2.0367,2.0367,2.0367,1.9712,1.9753,1.9806,1.9864,1.9903,1.9947,1.9989,2.0023,2.0075,2.0139,2.0155,2.0218,2.0268,2.0349,2.0381,2.043,2.0423,2.044,2.0444,2.0447,2.0447,2.0353,2.0441,2.0441,2.0441,2.0441,2.0441,0,1.979,1.9824,1.9878,1.9944,1.9989,1.9993,2.0046,2.0083,2.0139,2.0185,2.0234,2.0303,2.036,2.0402,2.046,2.0491,2.0496,2.0505,2.0503,2.0509,2.0451,2.0435,2.05,2.05,2.05,2.05,2.05,2.05,1.9836,1.9905,1.9926,2.0014,2.0048,2.0111,2.014,2.018,2.0217,2.0294,2.0341,2.0369,2.0413,2.0474,2.0526,2.0536,2.0556,2.0565,2.0576,2.052,2.0514,2.0507,2.0492,2.0569,2.0569,2.063,2.0631,2.0631]}]]